カタログに戻る

SL-6 R/B(2)

運用中HEO
NORAD 7629·ROCKET BODY·🇷🇺 Russia

打ち上げ Jan 30, 1975 から Plesetsk Cosmodrome

Loading…

次のパス (今後24時間)

TLE

最新Source: Space-Track

元期: Sep 14, 2026, 03:33 UTC

1 07629U 75007D   26257.14854374 -.00000110  00000-0  00000-0 0  9994
2 07629  68.9430 227.7384 5181807 299.3455 298.4242  2.00856556239783

AllMySatでSL-6 R/B(2)をリアルタイム追跡

Download on the App Store